Location: Barcelona
(41.3830°N, 2.1830°E)
Time: 08:46:31
(UTC+02:00)

ISS - Pass Details

Date: 25 July 2017
Orbit: 400 x 408 km, 51.6° (Epoch: 21 July)

Event Time Altitude Azimuth Distance (km) Brightness Sun altitude
Rises 23:11:05 0° 261° (W) 2,304 0.5 -17.9°
Reaches altitude 10° 23:13:20 10° 273° (W) 1,448 -0.4 -18.2°
Maximum altitude 23:16:13 29° 335° (NNW) 771 -1.7 -18.6°
Drops below altitude 10° 23:19:07 10° 38° (NE) 1,453 -0.9 -18.9°
Sets 23:21:22 0° 50° (NE) 2,314 0.0 -19.2°
